Location: Powder Track
(41.8531°N, 72.3584°W)
Time: 22:14:55
(UTC+00:00)

Vanguard 2 Rocket - Pass Details

Date: 08 August 2021
Orbit: 555 x 3324 km, 32.9° (Epoch: 18 September)

Event Time Altitude Azimuth Distance (km) Brightness Sun altitude
Rises 09:37:16 0° 234° (SW) 4,413 - -3.1°
Exits shadow 09:38:13 - 232° (SW) 4,076 9.6 -3.0°
Reaches altitude 10° 09:41:23 10° 222° (SW) 2,967 9.0 -2.4°
Maximum altitude 09:46:34 24° 171° (S) 1,659 8.1 -1.5°
Drops below altitude 10° 09:50:22 10° 117° (ESE) 2,094 9.4 -0.9°
Sets 09:52:43 0° 102° (ESE) 2,852 10.5 -0.5°
